Location: Tamazert
(32.6352°N, 5.2072°W)
Time: 04:26:08
(UTC+00:00)

Vanguard 1 Rocket - Pass Details

Date: 09 October 2022
Orbit: 650 x 4225 km, 34.3° (Epoch: 05 December)

Event Time Altitude Azimuth Distance (km) Brightness Sun altitude
Rises 21:05:29 0° 273° (W) 8,222 13.1 -40.3°
Reaches altitude 10° 21:11:42 10° 275° (W) 6,875 12.4 -41.5°
Enters shadow 21:31:55 83° 318° (NW) 2,443 9.3 -45.3°
Maximum altitude 21:32:32 85° 5° (N) 2,385 - -45.5°
Drops below altitude 10° 21:42:47 10° 95° (E) 3,700 - -47.3°
Sets 21:45:05 0° 96° (E) 4,377 - -47.8°
